Location: Great Snoring
(52.8667°N, 0.8833°E)
Time: 21:06:14
(UTC+00:00)

USA 229 - Pass Details

Date: 19 May 2025
Orbit: 872 x 1339 km, 63.4° (Epoch: 20 June)

Event Time Altitude Azimuth Distance (km) Brightness Sun altitude
Exits shadow 23:20:50 26° 175° (S) 1,767 4.2 -16.8°
Maximum altitude 23:23:49 44° 121° (ESE) 1,344 3.9 -16.9°
Drops below altitude 10° 23:30:09 10° 53° (NE) 2,902 6.4 -17.0°
Sets 23:33:04 0° 47° (NE) 3,936 7.2 -17.0°
